| time (UTC) | temp F | wind direction | speed MPH | gust MPH | rain 1hr in | rain 24hr in | rain mn in | humidity % | barometer mb |
| 20260510104548 | 68 | 242 | 1.0 | 1.0 | 0.00 | 0.00 | 0.00 | 92 | 1013.5 |
| 20260510101653 | 67 | 273 | 1.0 | 4.0 | 0.00 | 0.00 | 0.00 | 92 | 1012.8 |
| 20260510100112 | 67 | 257 | 0.0 | 0.0 | 0.00 | 0.00 | 0.00 | 92 | 1012.0 |
| 20260510094519 | 67 | 257 | 0.0 | 0.0 | 0.00 | 0.00 | 0.00 | 92 | 1011.9 |
| 20260510091536 | 67 | 253 | 0.0 | 1.0 | 0.00 | 0.00 | 0.00 | 92 | 1011.1 |
| 20260510084555 | 68 | 234 | 0.0 | 0.0 | 0.00 | 0.00 | 0.00 | 92 | 1010.3 |
| 20260510070007 | 69 | 238 | 0.0 | 0.0 | 0.00 | 0.00 | 0.00 | 89 | 1009.0 |
| 20260510064549 | 70 | 277 | 0.0 | 1.0 | 0.00 | 0.00 | 0.00 | 88 | 1009.5 |
| 20260510063005 | 70 | 284 | 0.0 | 1.0 | 0.00 | 0.00 | 0.00 | 87 | 1009.6 |
| 20260510061600 | 71 | 296 | 0.0 | 2.0 | 0.00 | 0.00 | 0.00 | 87 | 1009.6 |
| 20260510060039 | 71 | 246 | 0.0 | 1.0 | 0.00 | 0.00 | 0.00 | 86 | 1009.4 |
| 20260510054533 | 72 | 257 | 0.0 | 3.0 | 0.00 | 0.00 | 0.00 | 86 | 1009.3 |
| 20260510053001 | 72 | 271 | 0.0 | 2.0 | 0.00 | 0.00 | 0.00 | 86 | 1009.1 |
| 20260510051556 | 72 | 271 | 0.0 | 2.0 | 0.00 | 0.00 | 0.00 | 87 | 1009.1 |
| 20260510050129 | 73 | 266 | 0.0 | 1.0 | 0.00 | 0.00 | 0.00 | 86 | 1009.0 |
| 20260510033145 | 76 | 280 | 0.0 | 3.0 | 0.00 | 0.00 | 0.00 | 85 | 1009.2 |
| 20260510031554 | 77 | 278 | 1.0 | 5.0 | 0.00 | 0.00 | 0.00 | 84 | 1008.9 |
| 20260510014621 | 80 | 269 | 0.0 | 3.0 | 0.00 | 0.00 | 0.00 | 75 | 1007.8 |
| 20260510013015 | 81 | 262 | 0.0 | 2.0 | 0.00 | 0.00 | 0.00 | 71 | 1007.5 |
| 20260510003026 | 83 | 274 | 0.0 | 0.0 | 0.00 | 0.00 | 0.00 | 65 | 1006.8 |
| 20260510001552 | 84 | 269 | 0.0 | 2.0 | 0.00 | 0.00 | 0.00 | 65 | 1006.7 |
| 20260509234529 | 83 | 282 | 0.0 | 0.0 | 0.00 | 0.00 | 0.00 | 65 | 1006.4 |
| 20260509224559 | 89 | 164 | 0.0 | 1.0 | 0.00 | 0.00 | 0.00 | 51 | 1006.3 |
| 20260509220158 | 89 | 84 | 0.0 | 7.0 | 0.00 | 0.00 | 0.00 | 53 | 1006.2 |
| 20260509213157 | 91 | 77 | 0.0 | 2.0 | 0.00 | 0.00 | 0.00 | 52 | 1006.4 |
| 20260509201653 | 86 | 130 | 0.0 | 2.0 | 0.00 | 0.00 | 0.00 | 63 | 1007.2 |
| 20260509191543 | 86 | 146 | 0.0 | 5.0 | 0.00 | 0.00 | 0.00 | 61 | 1008.0 |
| 20260509170145 | 81 | 82 | 1.0 | 4.0 | 0.00 | 0.00 | 0.00 | 75 | 1008.9 |
| 20260509164702 | 81 | 131 | 0.0 | 4.0 | 0.00 | 0.00 | 0.00 | 74 | 1009.1 |
| 20260509161611 | 81 | 91 | 0.0 | 2.0 | 0.00 | 0.00 | 0.00 | 75 | 1009.0 |
| 20260509160146 | 80 | 119 | 0.0 | 2.0 | 0.00 | 0.00 | 0.00 | 79 | 1008.9 |
| 20260509153108 | 77 | 282 | 0.0 | 0.0 | 0.00 | 0.00 | 0.00 | 85 | 1009.0 |
| 20260509151617 | 74 | 87 | 0.0 | 3.0 | 0.00 | 0.00 | 0.00 | 90 | 1008.8 |
| 20260509150112 | 73 | 102 | 0.0 | 0.0 | 0.00 | 0.00 | 0.00 | 92 | 1009.1 |
| 20260509144616 | 72 | 102 | 0.0 | 0.0 | 0.00 | 0.00 | 0.00 | 92 | 1009.3 |
| 20260509141519 | 72 | 102 | 0.0 | 0.0 | 0.00 | 0.00 | 0.00 | 92 | 1009.4 |
| 20260509134629 | 72 | 115 | 0.0 | 1.0 | 0.00 | 0.00 | 0.00 | 93 | 1009.2 |
| 20260509133114 | 71 | 90 | 0.0 | 1.0 | 0.00 | 0.00 | 0.00 | 94 | 1009.0 |
| 20260509131559 | 71 | 91 | 0.0 | 0.0 | 0.00 | 0.00 | 0.00 | 94 | 1009.3 |
| 20260509130120 | 71 | 82 | 0.0 | 1.0 | 0.00 | 0.00 | 0.00 | 94 | 1009.2 |
| 20260509124638 | 70 | 84 | 0.0 | 2.0 | 0.00 | 0.00 | 0.00 | 94 | 1009.1 |
| 20260509111539 | 69 | 94 | 0.0 | 2.0 | 0.00 | 0.00 | 0.00 | 94 | 1008.0 |
| 20260509110047 | 69 | 90 | 0.0 | 1.0 | 0.00 | 0.00 | 0.00 | 94 | 1007.5 |